| time (UTC) | temp F | wind direction | speed MPH | gust MPH | rain 1hr in | rain 24hr in | rain mn in | humidity % | barometer mb |
| 20260507025034 | 43 | 280 | 3.0 | 8.0 | 0.00 | 0.00 | 0.00 | 50 | 1014.2 |
| 20260507024537 | 43 | 180 | 1.0 | 8.0 | 0.00 | 0.00 | 0.00 | 46 | 1014.1 |
| 20260507024034 | 43 | 204 | 2.0 | 8.0 | 0.00 | 0.00 | 0.00 | 48 | 1014.0 |
| 20260507023533 | 43 | 257 | 1.0 | 8.0 | 0.00 | 0.00 | 0.00 | 49 | 1014.0 |
| 20260507023035 | 43 | 220 | 2.0 | 5.0 | 0.00 | 0.00 | 0.00 | 50 | 1014.0 |
| 20260507022534 | 43 | 172 | 2.0 | 6.0 | 0.00 | 0.00 | 0.00 | 48 | 1014.0 |
| 20260507022034 | 43 | 163 | 1.0 | 5.0 | 0.00 | 0.00 | 0.00 | 48 | 1013.9 |
| 20260507021533 | 44 | 180 | 2.0 | 5.0 | 0.00 | 0.00 | 0.00 | 50 | 1013.9 |
| 20260507021036 | 44 | 267 | 1.0 | 4.0 | 0.00 | 0.00 | 0.00 | 49 | 1013.9 |
| 20260507020533 | 44 | 239 | 1.0 | 5.0 | 0.00 | 0.00 | 0.00 | 49 | 1013.9 |
| 20260507020041 | 44 | 227 | 2.0 | 5.0 | 0.00 | 0.00 | 0.00 | 50 | 1013.9 |
| 20260507015533 | 44 | 279 | 1.0 | 5.0 | 0.00 | 0.00 | 0.00 | 50 | 1013.9 |
| 20260507015032 | 43 | 244 | 2.0 | 7.0 | 0.00 | 0.00 | 0.00 | 50 | 1013.9 |
| 20260507014531 | 43 | 307 | 1.0 | 7.0 | 0.00 | 0.00 | 0.00 | 49 | 1013.8 |
| 20260507014033 | 43 | 330 | 2.0 | 5.0 | 0.00 | 0.00 | 0.00 | 48 | 1013.8 |
| 20260507013531 | 43 | 267 | 1.0 | 5.0 | 0.00 | 0.00 | 0.00 | 50 | 1013.9 |
| 20260507013046 | 43 | 238 | 2.0 | 6.0 | 0.00 | 0.00 | 0.00 | 51 | 1013.9 |
| 20260507012531 | 44 | 209 | 1.0 | 9.0 | 0.00 | 0.00 | 0.00 | 51 | 1013.9 |
| 20260507012031 | 44 | 214 | 3.0 | 12.0 | 0.00 | 0.00 | 0.00 | 50 | 1013.8 |
| 20260507011533 | 44 | 237 | 2.0 | 12.0 | 0.00 | 0.00 | 0.00 | 49 | 1013.7 |
| 20260507011033 | 44 | 188 | 3.0 | 7.0 | 0.00 | 0.00 | 0.00 | 49 | 1013.7 |
| 20260507010532 | 45 | 226 | 2.0 | 6.0 | 0.00 | 0.00 | 0.00 | 49 | 1013.7 |
| 20260507010036 | 45 | 213 | 2.0 | 7.0 | 0.00 | 0.00 | 0.00 | 47 | 1013.6 |
| 20260507005529 | 44 | 263 | 1.0 | 8.0 | 0.00 | 0.00 | 0.00 | 50 | 1013.6 |
| 20260507005030 | 45 | 211 | 2.0 | 8.0 | 0.00 | 0.00 | 0.00 | 50 | 1013.6 |
| 20260507004529 | 45 | 283 | 2.0 | 7.0 | 0.00 | 0.00 | 0.00 | 50 | 1013.7 |
| 20260507004030 | 44 | 259 | 1.0 | 7.0 | 0.00 | 0.00 | 0.00 | 49 | 1013.6 |
| 20260507003530 | 45 | 232 | 3.0 | 6.0 | 0.00 | 0.00 | 0.00 | 49 | 1013.6 |
| 20260507003028 | 44 | 215 | 1.0 | 6.0 | 0.00 | 0.00 | 0.00 | 50 | 1013.6 |
| 20260507002528 | 44 | 206 | 2.0 | 6.0 | 0.00 | 0.00 | 0.00 | 48 | 1013.6 |
| 20260507002027 | 44 | 235 | 1.0 | 8.0 | 0.00 | 0.00 | 0.00 | 50 | 1013.6 |
| 20260507001531 | 44 | 263 | 2.0 | 7.0 | 0.00 | 0.00 | 0.00 | 49 | 1013.6 |
| 20260507001028 | 44 | 173 | 3.0 | 7.0 | 0.00 | 0.00 | 0.00 | 50 | 1013.6 |
| 20260507000526 | 44 | 232 | 2.0 | 5.0 | 0.00 | 0.00 | 0.00 | 50 | 1013.7 |
| 20260507000026 | 44 | 94 | 2.0 | 6.0 | 0.00 | 0.00 | 0.00 | 49 | 1013.6 |
| 20260506235525 | 45 | 188 | 1.0 | 10.0 | 0.00 | 0.00 | 0.00 | 49 | 1013.6 |
| 20260506235025 | 45 | 271 | 3.0 | 10.0 | 0.00 | 0.00 | 0.00 | 50 | 1013.6 |
| 20260506234534 | 44 | 16 | 1.0 | 8.0 | 0.00 | 0.00 | 0.00 | 48 | 1013.6 |
| 20260506234025 | 45 | 148 | 3.0 | 7.0 | 0.00 | 0.00 | 0.00 | 46 | 1013.5 |
| 20260506233525 | 45 | 153 | 2.0 | 8.0 | 0.00 | 0.00 | 0.00 | 48 | 1013.5 |
| 20260506233036 | 45 | 207 | 1.0 | 7.0 | 0.00 | 0.00 | 0.00 | 48 | 1013.5 |
| 20260506232524 | 46 | 142 | 2.0 | 7.0 | 0.00 | 0.00 | 0.00 | 46 | 1013.5 |
| 20260506232024 | 46 | 237 | 1.0 | 7.0 | 0.00 | 0.00 | 0.00 | 48 | 1013.5 |
| 20260506231528 | 45 | 234 | 3.0 | 7.0 | 0.00 | 0.00 | 0.00 | 47 | 1013.4 |
| 20260506231022 | 45 | 145 | 2.0 | 5.0 | 0.00 | 0.00 | 0.00 | 49 | 1013.4 |
| 20260506230522 | 45 | 233 | 2.0 | 9.0 | 0.00 | 0.00 | 0.00 | 47 | 1013.5 |
| 20260506230026 | 45 | 224 | 3.0 | 9.0 | 0.00 | 0.00 | 0.00 | 45 | 1013.4 |
| 20260506225521 | 45 | 188 | 3.0 | 9.0 | 0.00 | 0.00 | 0.00 | 44 | 1013.5 |
| 20260506225020 | 45 | 198 | 2.0 | 7.0 | 0.00 | 0.00 | 0.00 | 52 | 1013.4 |
| 20260506224521 | 45 | 139 | 2.0 | 8.0 | 0.00 | 0.00 | 0.00 | 51 | 1013.4 |
| 20260506224021 | 45 | 222 | 2.0 | 10.0 | 0.00 | 0.00 | 0.00 | 52 | 1013.4 |
| 20260506223519 | 44 | 167 | 1.0 | 10.0 | 0.00 | 0.00 | 0.00 | 49 | 1013.5 |
| 20260506223018 | 44 | 248 | 3.0 | 8.0 | 0.00 | 0.00 | 0.00 | 50 | 1013.5 |
| 20260506222518 | 44 | 54 | 1.0 | 5.0 | 0.00 | 0.00 | 0.00 | 52 | 1013.4 |
| 20260506222020 | 44 | 226 | 2.0 | 6.0 | 0.00 | 0.00 | 0.00 | 50 | 1013.4 |
| 20260506221517 | 44 | 263 | 2.0 | 6.0 | 0.00 | 0.00 | 0.00 | 54 | 1013.4 |
| 20260506221017 | 44 | 159 | 2.0 | 8.0 | 0.00 | 0.00 | 0.00 | 52 | 1013.4 |
| 20260506220517 | 44 | 141 | 3.0 | 8.0 | 0.00 | 0.00 | 0.00 | 53 | 1013.4 |
| 20260506220023 | 44 | 254 | 2.0 | 8.0 | 0.00 | 0.00 | 0.00 | 54 | 1013.4 |
| 20260506215515 | 44 | 270 | 3.0 | 7.0 | 0.00 | 0.00 | 0.00 | 58 | 1013.4 |
| 20260506215012 | 43 | 179 | 3.0 | 8.0 | 0.00 | 0.00 | 0.00 | 56 | 1013.5 |
| 20260506214513 | 43 | 172 | 3.0 | 7.0 | 0.00 | 0.00 | 0.00 | 58 | 1013.5 |
| 20260506214014 | 43 | 179 | 2.0 | 7.0 | 0.00 | 0.00 | 0.00 | 59 | 1013.5 |
| 20260506213511 | 43 | 157 | 2.0 | 6.0 | 0.00 | 0.00 | 0.00 | 57 | 1013.4 |
| 20260506213010 | 43 | 166 | 3.0 | 8.0 | 0.00 | 0.00 | 0.00 | 57 | 1013.5 |
| 20260506212508 | 42 | 294 | 3.0 | 8.0 | 0.00 | 0.00 | 0.00 | 58 | 1013.4 |
| 20260506212007 | 42 | 238 | 2.0 | 5.0 | 0.00 | 0.00 | 0.00 | 60 | 1013.4 |
| 20260506211511 | 42 | 290 | 2.0 | 5.0 | 0.00 | 0.00 | 0.00 | 62 | 1013.3 |
| 20260506211007 | 42 | 338 | 3.0 | 5.0 | 0.00 | 0.00 | 0.00 | 60 | 1013.3 |
| 20260506210512 | 42 | 355 | 1.0 | 7.0 | 0.00 | 0.00 | 0.00 | 61 | 1013.3 |
| 20260506210011 | 42 | 207 | 2.0 | 5.0 | 0.00 | 0.00 | 0.00 | 61 | 1013.3 |
| 20260506205505 | 42 | 225 | 2.0 | 10.0 | 0.00 | 0.00 | 0.00 | 61 | 1013.2 |
| 20260506205010 | 42 | 184 | 1.0 | 10.0 | 0.00 | 0.00 | 0.00 | 63 | 1013.3 |
| 20260506204505 | 42 | 183 | 2.0 | 9.0 | 0.00 | 0.00 | 0.00 | 62 | 1013.4 |
| 20260506204005 | 41 | 159 | 1.0 | 9.0 | 0.00 | 0.00 | 0.00 | 62 | 1013.3 |
| 20260506203502 | 42 | 137 | 2.0 | 6.0 | 0.00 | 0.00 | 0.00 | 63 | 1013.4 |
| 20260506203002 | 41 | 249 | 1.0 | 11.0 | 0.00 | 0.00 | 0.00 | 63 | 1013.4 |
| 20260506202501 | 41 | 129 | 3.0 | 11.0 | 0.00 | 0.00 | 0.00 | 61 | 1013.4 |
| 20260506202001 | 41 | 279 | 3.0 | 9.0 | 0.00 | 0.00 | 0.00 | 63 | 1013.3 |
| 20260506201603 | 41 | 252 | 3.0 | 7.0 | 0.00 | 0.00 | 0.00 | 68 | 1013.3 |
| 20260506201059 | 40 | 205 | 2.0 | 7.0 | 0.00 | 0.00 | 0.00 | 66 | 1013.3 |
| 20260506200557 | 40 | 177 | 3.0 | 8.0 | 0.00 | 0.00 | 0.00 | 67 | 1013.3 |
| 20260506200056 | 40 | 238 | 2.0 | 7.0 | 0.00 | 0.00 | 0.00 | 66 | 1013.2 |
| 20260506195556 | 40 | 300 | 2.0 | 8.0 | 0.00 | 0.00 | 0.00 | 66 | 1013.4 |
| 20260506195056 | 40 | 151 | 2.0 | 9.0 | 0.00 | 0.00 | 0.00 | 68 | 1013.3 |
| 20260506194555 | 40 | 191 | 3.0 | 9.0 | 0.00 | 0.00 | 0.00 | 69 | 1013.2 |
| 20260506194055 | 39 | 228 | 1.0 | 8.0 | 0.00 | 0.00 | 0.00 | 70 | 1013.2 |
| 20260506193553 | 39 | 210 | 3.0 | 7.0 | 0.00 | 0.00 | 0.00 | 69 | 1013.1 |
| 20260506193052 | 39 | 138 | 2.0 | 8.0 | 0.00 | 0.00 | 0.00 | 73 | 1013.1 |
| 20260506192552 | 39 | 285 | 2.0 | 8.0 | 0.00 | 0.00 | 0.00 | 74 | 1013.1 |
| 20260506192052 | 39 | 207 | 2.0 | 9.0 | 0.00 | 0.00 | 0.00 | 75 | 1013.1 |
| 20260506191550 | 39 | 266 | 3.0 | 9.0 | 0.00 | 0.00 | 0.00 | 77 | 1013.0 |
| 20260506191050 | 38 | 157 | 2.0 | 10.0 | 0.00 | 0.00 | 0.00 | 76 | 1013.0 |
| 20260506190549 | 38 | 198 | 2.0 | 9.0 | 0.00 | 0.00 | 0.00 | 80 | 1013.0 |
| 20260506190046 | 38 | 202 | 3.0 | 8.0 | 0.00 | 0.00 | 0.00 | 82 | 1013.0 |
| 20260506185545 | 37 | 203 | 1.0 | 7.0 | 0.00 | 0.00 | 0.00 | 82 | 1013.0 |
| 20260506185046 | 37 | 203 | 2.0 | 7.0 | 0.00 | 0.00 | 0.00 | 82 | 1012.8 |
| 20260506184544 | 37 | 271 | 1.0 | 8.0 | 0.00 | 0.00 | 0.00 | 84 | 1012.8 |
| 20260506184043 | 36 | 192 | 1.0 | 7.0 | 0.00 | 0.00 | 0.00 | 86 | 1012.8 |
| 20260506183542 | 36 | 221 | 2.0 | 7.0 | 0.00 | 0.00 | 0.00 | 86 | 1012.7 |
| 20260506183041 | 36 | 207 | 3.0 | 7.0 | 0.00 | 0.00 | 0.00 | 86 | 1012.7 |
| 20260506182539 | 36 | 265 | 1.0 | 7.0 | 0.00 | 0.00 | 0.00 | 88 | 1012.7 |
| 20260506182039 | 36 | 178 | 3.0 | 7.0 | 0.00 | 0.00 | 0.00 | 89 | 1012.8 |
| 20260506181538 | 36 | 221 | 2.0 | 5.0 | 0.00 | 0.00 | 0.00 | 87 | 1012.7 |
| 20260506181041 | 36 | 197 | 2.0 | 5.0 | 0.00 | 0.00 | 0.00 | 87 | 1012.7 |
| 20260506180538 | 36 | 186 | 1.0 | 5.0 | 0.00 | 0.00 | 0.00 | 88 | 1012.7 |
| 20260506180040 | 36 | 206 | 1.0 | 5.0 | 0.00 | 0.00 | 0.00 | 88 | 1012.7 |
| 20260506175534 | 36 | 233 | 2.0 | 5.0 | 0.00 | 0.00 | 0.00 | 89 | 1012.6 |
| 20260506175035 | 36 | 201 | 2.0 | 5.0 | 0.00 | 0.00 | 0.00 | 89 | 1012.5 |
| 20260506174533 | 35 | 198 | 1.0 | 4.0 | 0.00 | 0.00 | 0.00 | 88 | 1012.5 |
| 20260506174033 | 35 | 226 | 1.0 | 7.0 | 0.00 | 0.00 | 0.00 | 88 | 1012.5 |
| 20260506173532 | 35 | 179 | 3.0 | 7.0 | 0.00 | 0.00 | 0.00 | 88 | 1012.5 |
| 20260506173038 | 35 | 206 | 1.0 | 7.0 | 0.00 | 0.00 | 0.00 | 88 | 1012.3 |
| 20260506172531 | 35 | 147 | 2.0 | 7.0 | 0.00 | 0.00 | 0.00 | 88 | 1012.4 |
| 20260506172029 | 36 | 180 | 2.0 | 8.0 | 0.00 | 0.00 | 0.00 | 87 | 1012.3 |
| 20260506171529 | 36 | 263 | 2.0 | 8.0 | 0.00 | 0.00 | 0.00 | 88 | 1012.3 |
| 20260506171028 | 35 | 221 | 1.0 | 5.0 | 0.00 | 0.00 | 0.00 | 88 | 1012.3 |
| 20260506170527 | 35 | 226 | 1.0 | 5.0 | 0.00 | 0.00 | 0.00 | 88 | 1012.2 |
| 20260506170030 | 35 | 226 | 2.0 | 5.0 | 0.00 | 0.00 | 0.00 | 87 | 1012.2 |
| 20260506165526 | 35 | 214 | 3.0 | 6.0 | 0.00 | 0.00 | 0.00 | 87 | 1012.1 |
| 20260506165026 | 35 | 209 | 1.0 | 11.0 | 0.00 | 0.00 | 0.00 | 88 | 1012.1 |
| 20260506164525 | 35 | 207 | 3.0 | 11.0 | 0.00 | 0.00 | 0.00 | 88 | 1012.1 |
| 20260506164024 | 35 | 227 | 1.0 | 6.0 | 0.00 | 0.00 | 0.00 | 89 | 1012.2 |
| 20260506163523 | 35 | 208 | 2.0 | 6.0 | 0.00 | 0.00 | 0.00 | 89 | 1012.1 |
| 20260506163024 | 35 | 176 | 2.0 | 5.0 | 0.00 | 0.00 | 0.00 | 89 | 1012.0 |
| 20260506162520 | 35 | 182 | 2.0 | 6.0 | 0.00 | 0.00 | 0.00 | 89 | 1012.1 |
| 20260506162021 | 35 | 157 | 1.0 | 6.0 | 0.00 | 0.00 | 0.00 | 89 | 1011.9 |
| 20260506161520 | 35 | 207 | 1.0 | 8.0 | 0.00 | 0.00 | 0.00 | 90 | 1012.0 |
| 20260506161020 | 35 | 236 | 1.0 | 8.0 | 0.00 | 0.00 | 0.00 | 90 | 1011.9 |
| 20260506160520 | 35 | 211 | 4.0 | 8.0 | 0.00 | 0.00 | 0.00 | 90 | 1011.8 |
| 20260506160019 | 35 | 213 | 1.0 | 6.0 | 0.00 | 0.00 | 0.00 | 90 | 1011.8 |
| 20260506155520 | 35 | 218 | 2.0 | 6.0 | 0.00 | 0.00 | 0.00 | 89 | 1011.7 |
| 20260506155017 | 35 | 220 | 1.0 | 4.0 | 0.00 | 0.00 | 0.00 | 89 | 1011.7 |
| 20260506154519 | 35 | 195 | 1.0 | 6.0 | 0.00 | 0.00 | 0.00 | 89 | 1011.8 |
| 20260506154017 | 35 | 213 | 3.0 | 6.0 | 0.00 | 0.00 | 0.00 | 89 | 1011.7 |
| 20260506153515 | 35 | 205 | 2.0 | 5.0 | 0.00 | 0.00 | 0.00 | 88 | 1011.8 |
| 20260506153014 | 35 | 191 | 1.0 | 6.0 | 0.00 | 0.00 | 0.00 | 88 | 1011.6 |
| 20260506152513 | 35 | 229 | 2.0 | 5.0 | 0.00 | 0.00 | 0.00 | 88 | 1011.6 |
| 20260506152013 | 35 | 193 | 1.0 | 5.0 | 0.00 | 0.00 | 0.00 | 88 | 1011.5 |
| 20260506151513 | 35 | 169 | 1.0 | 5.0 | 0.00 | 0.00 | 0.00 | 88 | 1011.4 |
| 20260506151012 | 35 | 206 | 2.0 | 6.0 | 0.00 | 0.00 | 0.00 | 88 | 1011.4 |
| 20260506150511 | 35 | 165 | 0.0 | 6.0 | 0.00 | 0.00 | 0.00 | 88 | 1011.3 |
| 20260506150011 | 35 | 286 | 2.0 | 6.0 | 0.00 | 0.00 | 0.00 | 88 | 1011.3 |
| 20260506145513 | 35 | 209 | 2.0 | 6.0 | 0.00 | 0.00 | 0.00 | 88 | 1011.3 |
| 20260506145008 | 35 | 212 | 2.0 | 6.0 | 0.00 | 0.00 | 0.00 | 89 | 1011.2 |
| 20260506144508 | 35 | 202 | 1.0 | 5.0 | 0.00 | 0.00 | 0.00 | 89 | 1011.1 |
| 20260506144007 | 35 | 202 | 1.0 | 5.0 | 0.00 | 0.00 | 0.00 | 89 | 1011.2 |
| 20260506143506 | 35 | 213 | 1.0 | 8.0 | 0.00 | 0.00 | 0.00 | 89 | 1011.0 |
| 20260506143007 | 35 | 188 | 1.0 | 8.0 | 0.00 | 0.00 | 0.00 | 89 | 1011.0 |
| 20260506142505 | 35 | 240 | 2.0 | 7.0 | 0.00 | 0.00 | 0.00 | 89 | 1010.8 |
| 20260506142004 | 35 | 218 | 1.0 | 7.0 | 0.00 | 0.00 | 0.00 | 89 | 1010.8 |
| 20260506141503 | 35 | 226 | 1.0 | 7.0 | 0.00 | 0.00 | 0.00 | 89 | 1010.7 |
| 20260506141002 | 35 | 210 | 2.0 | 10.0 | 0.00 | 0.00 | 0.00 | 89 | 1010.7 |
| 20260506140502 | 35 | 238 | 1.0 | 6.0 | 0.00 | 0.00 | 0.00 | 90 | 1010.7 |
| 20260506140100 | 35 | 148 | 1.0 | 6.0 | 0.00 | 0.00 | 0.00 | 90 | 1010.7 |
| 20260506135601 | 35 | 237 | 1.0 | 6.0 | 0.00 | 0.00 | 0.00 | 90 | 1010.7 |
| 20260506135058 | 36 | 184 | 1.0 | 4.0 | 0.00 | 0.00 | 0.00 | 90 | 1010.6 |
| 20260506134559 | 36 | 144 | 0.0 | 3.0 | 0.00 | 0.00 | 0.00 | 90 | 1010.7 |
| 20260506134057 | 36 | 183 | 1.0 | 7.0 | 0.00 | 0.00 | 0.00 | 90 | 1010.6 |
| 20260506133559 | 36 | 200 | 4.0 | 7.0 | 0.00 | 0.00 | 0.00 | 91 | 1010.5 |
| 20260506133104 | 36 | 212 | 0.0 | 6.0 | 0.00 | 0.00 | 0.00 | 91 | 1010.5 |
| 20260506132555 | 36 | 181 | 3.0 | 6.0 | 0.00 | 0.00 | 0.00 | 91 | 1010.4 |
| 20260506132054 | 36 | 198 | 1.0 | 5.0 | 0.00 | 0.00 | 0.00 | 91 | 1010.3 |
| 20260506131555 | 36 | 202 | 1.0 | 5.0 | 0.00 | 0.00 | 0.00 | 91 | 1010.3 |
| 20260506131051 | 36 | 178 | 1.0 | 5.0 | 0.00 | 0.00 | 0.00 | 91 | 1010.3 |
| 20260506130551 | 36 | 209 | 2.0 | 5.0 | 0.00 | 0.00 | 0.00 | 91 | 1010.3 |
| 20260506130049 | 36 | 192 | 1.0 | 4.0 | 0.00 | 0.00 | 0.00 | 91 | 1010.3 |
| 20260506125548 | 36 | 219 | 0.0 | 5.0 | 0.00 | 0.00 | 0.00 | 91 | 1010.2 |
| 20260506125047 | 36 | 223 | 1.0 | 5.0 | 0.00 | 0.00 | 0.00 | 91 | 1010.2 |
| 20260506124546 | 37 | 215 | 1.0 | 4.0 | 0.00 | 0.00 | 0.00 | 91 | 1010.0 |
| 20260506124045 | 37 | 206 | 1.0 | 4.0 | 0.00 | 0.00 | 0.00 | 91 | 1009.9 |
| 20260506123544 | 37 | 211 | 1.0 | 3.0 | 0.00 | 0.00 | 0.00 | 92 | 1009.9 |
| 20260506123046 | 37 | 200 | 0.0 | 4.0 | 0.00 | 0.00 | 0.00 | 92 | 1009.8 |
| 20260506122542 | 37 | 173 | 1.0 | 4.0 | 0.00 | 0.00 | 0.00 | 92 | 1009.7 |
| 20260506122043 | 37 | 248 | 0.0 | 3.0 | 0.00 | 0.00 | 0.00 | 92 | 1009.6 |
| 20260506121546 | 37 | 175 | 0.0 | 5.0 | 0.00 | 0.00 | 0.00 | 92 | 1009.6 |
| 20260506121039 | 37 | 258 | 1.0 | 5.0 | 0.00 | 0.00 | 0.00 | 92 | 1009.6 |
| 20260506120539 | 37 | 178 | 0.0 | 3.0 | 0.00 | 0.00 | 0.00 | 92 | 1009.4 |
| 20260506120105 | 37 | 190 | 0.0 | 3.0 | 0.00 | 0.00 | 0.00 | 92 | 1009.4 |
| 20260506115538 | 37 | 190 | 0.0 | 3.0 | 0.00 | 0.00 | 0.00 | 92 | 1009.3 |
| 20260506115038 | 37 | 184 | 0.0 | 3.0 | 0.00 | 0.00 | 0.00 | 92 | 1009.2 |
| 20260506114537 | 37 | 232 | 0.0 | 4.0 | 0.00 | 0.00 | 0.00 | 92 | 1009.2 |
| 20260506114036 | 38 | 218 | 1.0 | 4.0 | 0.00 | 0.00 | 0.00 | 92 | 1009.2 |
| 20260506113536 | 38 | 184 | 0.0 | 4.0 | 0.00 | 0.00 | 0.00 | 92 | 1009.2 |
| 20260506113036 | 38 | 133 | 1.0 | 5.0 | 0.00 | 0.00 | 0.00 | 92 | 1009.2 |
| 20260506112535 | 38 | 153 | 0.0 | 3.0 | 0.00 | 0.00 | 0.00 | 92 | 1009.1 |
| 20260506112034 | 38 | 252 | 0.0 | 3.0 | 0.00 | 0.00 | 0.00 | 91 | 1009.1 |
| 20260506111533 | 38 | 208 | 0.0 | 3.0 | 0.00 | 0.00 | 0.00 | 91 | 1008.9 |
| 20260506111035 | 38 | 206 | 1.0 | 3.0 | 0.00 | 0.00 | 0.00 | 92 | 1008.9 |
| 20260506110532 | 38 | 184 | 0.0 | 4.0 | 0.00 | 0.00 | 0.00 | 92 | 1008.9 |
| 20260506110031 | 38 | 184 | 2.0 | 4.0 | 0.00 | 0.00 | 0.00 | 92 | 1008.8 |
| 20260506105531 | 38 | 236 | 2.0 | 4.0 | 0.00 | 0.00 | 0.00 | 92 | 1008.7 |
| 20260506105028 | 38 | 207 | 0.0 | 6.0 | 0.00 | 0.00 | 0.00 | 92 | 1008.6 |
| 20260506104529 | 38 | 216 | 1.0 | 6.0 | 0.00 | 0.00 | 0.00 | 92 | 1008.6 |
| 20260506104026 | 38 | 195 | 1.0 | 5.0 | 0.00 | 0.00 | 0.00 | 92 | 1008.5 |
| 20260506103526 | 38 | 146 | 0.0 | 3.0 | 0.00 | 0.00 | 0.00 | 92 | 1008.5 |
| 20260506103029 | 38 | 181 | 1.0 | 3.0 | 0.00 | 0.00 | 0.00 | 92 | 1008.4 |
| 20260506102525 | 37 | 163 | 0.0 | 3.0 | 0.00 | 0.00 | 0.00 | 92 | 1008.4 |
| 20260506102024 | 37 | 178 | 0.0 | 3.0 | 0.00 | 0.00 | 0.00 | 91 | 1008.4 |
| 20260506101525 | 37 | 189 | 1.0 | 3.0 | 0.00 | 0.00 | 0.00 | 91 | 1008.4 |
| 20260506101023 | 37 | 153 | 0.0 | 3.0 | 0.00 | 0.00 | 0.00 | 91 | 1008.2 |
| 20260506100521 | 37 | 219 | 0.0 | 3.0 | 0.00 | 0.00 | 0.00 | 90 | 1008.2 |
| 20260506100022 | 38 | 184 | 1.0 | 3.0 | 0.00 | 0.00 | 0.00 | 90 | 1008.1 |
| 20260506095519 | 38 | 195 | 0.0 | 2.0 | 0.00 | 0.00 | 0.00 | 90 | 1008.0 |
| 20260506095018 | 38 | 195 | 0.0 | 2.0 | 0.00 | 0.00 | 0.00 | 90 | 1008.1 |
| 20260506094528 | 38 | 195 | 0.0 | 3.0 | 0.00 | 0.00 | 0.00 | 90 | 1007.9 |
| 20260506094015 | 38 | 158 | 0.0 | 3.0 | 0.00 | 0.00 | 0.00 | 90 | 1007.8 |
| 20260506093516 | 38 | 165 | 0.0 | 2.0 | 0.00 | 0.00 | 0.00 | 90 | 1007.7 |
| 20260506093023 | 38 | 163 | 0.0 | 0.0 | 0.00 | 0.00 | 0.00 | 90 | 1007.7 |
| 20260506092514 | 38 | 163 | 0.0 | 0.0 | 0.00 | 0.00 | 0.00 | 90 | 1007.6 |
| 20260506092014 | 38 | 163 | 0.0 | 0.0 | 0.00 | 0.00 | 0.00 | 90 | 1007.6 |
| 20260506091512 | 39 | 164 | 0.0 | 1.0 | 0.00 | 0.00 | 0.00 | 89 | 1007.5 |
| 20260506091012 | 39 | 163 | 0.0 | 3.0 | 0.00 | 0.00 | 0.00 | 89 | 1007.5 |
| 20260506090512 | 39 | 165 | 0.0 | 4.0 | 0.00 | 0.00 | 0.00 | 89 | 1007.4 |
| 20260506090009 | 39 | 149 | 0.0 | 2.0 | 0.00 | 0.00 | 0.00 | 88 | 1007.4 |
| 20260506085508 | 39 | 149 | 0.0 | 2.0 | 0.00 | 0.00 | 0.00 | 88 | 1007.3 |
| 20260506085007 | 39 | 149 | 0.0 | 1.0 | 0.00 | 0.00 | 0.00 | 88 | 1007.3 |
| 20260506084507 | 39 | 149 | 0.0 | 2.0 | 0.00 | 0.00 | 0.00 | 88 | 1007.2 |
| 20260506084006 | 40 | 195 | 0.0 | 0.0 | 0.00 | 0.00 | 0.00 | 88 | 1007.2 |
| 20260506083506 | 40 | 196 | 0.0 | 0.0 | 0.00 | 0.00 | 0.00 | 88 | 1007.2 |
| 20260506083004 | 40 | 195 | 0.0 | 1.0 | 0.00 | 0.00 | 0.00 | 87 | 1007.1 |
| 20260506082505 | 40 | 195 | 0.0 | 2.0 | 0.00 | 0.00 | 0.00 | 87 | 1007.0 |
| 20260506082003 | 40 | 195 | 1.0 | 2.0 | 0.00 | 0.00 | 0.00 | 87 | 1006.9 |
| 20260506081501 | 40 | 153 | 0.0 | 2.0 | 0.00 | 0.00 | 0.00 | 87 | 1006.7 |
| 20260506081100 | 40 | 153 | 0.0 | 1.0 | 0.00 | 0.00 | 0.00 | 86 | 1006.6 |
| 20260506080601 | 41 | 150 | 0.0 | 1.0 | 0.00 | 0.00 | 0.00 | 86 | 1006.6 |
| 20260506073100 | 41 | 248 | 1.0 | 4.0 | 0.00 | 0.00 | 0.00 | 84 | 1006.3 |
| 20260506072557 | 41 | 199 | 1.0 | 4.0 | 0.00 | 0.00 | 0.00 | 84 | 1006.3 |
| 20260506072054 | 42 | 298 | 1.0 | 9.0 | 0.00 | 0.00 | 0.00 | 84 | 1006.1 |
| 20260506071555 | 41 | 292 | 2.0 | 9.0 | 0.00 | 0.00 | 0.00 | 84 | 1006.1 |
| 20260506071053 | 41 | 241 | 1.0 | 4.0 | 0.00 | 0.00 | 0.00 | 84 | 1006.0 |
| 20260506070553 | 42 | 259 | 1.0 | 4.0 | 0.00 | 0.00 | 0.00 | 84 | 1006.1 |
| 20260506070114 | 42 | 227 | 1.0 | 5.0 | 0.00 | 0.00 | 0.00 | 84 | 1006.1 |
| 20260506062055 | 43 | 235 | 0.0 | 6.0 | 0.00 | 0.00 | 0.00 | 83 | 1005.9 |
| 20260506061550 | 43 | 221 | 1.0 | 4.0 | 0.00 | 0.00 | 0.00 | 83 | 1005.8 |
| 20260506061050 | 43 | 222 | 1.0 | 4.0 | 0.00 | 0.00 | 0.00 | 82 | 1005.7 |
| 20260506060550 | 43 | 201 | 1.0 | 4.0 | 0.00 | 0.00 | 0.00 | 82 | 1005.7 |
| 20260506051046 | 44 | 204 | 1.0 | 5.0 | 0.00 | 0.00 | 0.00 | 80 | 1005.4 |
| 20260506050544 | 44 | 236 | 1.0 | 5.0 | 0.00 | 0.00 | 0.00 | 80 | 1005.4 |
| 20260506045042 | 44 | 261 | 0.0 | 4.0 | 0.00 | 0.00 | 0.00 | 81 | 1005.2 |
| 20260506044554 | 44 | 261 | 1.0 | 4.0 | 0.00 | 0.00 | 0.00 | 81 | 1005.1 |
| 20260506044042 | 44 | 259 | 2.0 | 5.0 | 0.00 | 0.00 | 0.00 | 81 | 1005.2 |
| 20260506043542 | 44 | 268 | 2.0 | 5.0 | 0.00 | 0.00 | 0.00 | 81 | 1005.0 |
| 20260506043045 | 44 | 195 | 1.0 | 7.0 | 0.00 | 0.00 | 0.00 | 81 | 1005.0 |
| 20260506042542 | 44 | 234 | 3.0 | 7.0 | 0.00 | 0.00 | 0.00 | 81 | 1005.0 |
| 20260506042042 | 44 | 236 | 3.0 | 8.0 | 0.00 | 0.00 | 0.00 | 80 | 1004.9 |
| 20260506041549 | 44 | 300 | 3.0 | 10.0 | 0.00 | 0.00 | 0.00 | 81 | 1004.9 |
| 20260506041043 | 44 | 217 | 3.0 | 10.0 | 0.00 | 0.00 | 0.00 | 81 | 1005.1 |
| 20260506040541 | 44 | 259 | 2.0 | 8.0 | 0.00 | 0.00 | 0.00 | 81 | 1005.2 |
| 20260506040044 | 45 | 221 | 2.0 | 6.0 | 0.00 | 0.00 | 0.00 | 79 | 1005.1 |
| 20260506035540 | 45 | 215 | 2.0 | 7.0 | 0.00 | 0.00 | 0.00 | 78 | 1005.0 |
| 20260506035039 | 45 | 124 | 2.0 | 9.0 | 0.00 | 0.00 | 0.00 | 77 | 1005.0 |
| 20260506034539 | 45 | 232 | 2.0 | 10.0 | 0.00 | 0.00 | 0.00 | 76 | 1004.9 |
| 20260506034038 | 46 | 309 | 4.0 | 10.0 | 0.00 | 0.00 | 0.00 | 75 | 1004.9 |
| 20260506033538 | 46 | 179 | 2.0 | 11.0 | 0.00 | 0.00 | 0.00 | 74 | 1004.8 |
| 20260506033038 | 47 | 218 | 3.0 | 14.0 | 0.00 | 0.00 | 0.00 | 73 | 1004.8 |
| 20260506032537 | 47 | 168 | 3.0 | 14.0 | 0.00 | 0.00 | 0.00 | 72 | 1004.7 |
| 20260506032037 | 47 | 299 | 3.0 | 11.0 | 0.00 | 0.00 | 0.00 | 71 | 1004.7 |
| 20260506031553 | 48 | 158 | 3.0 | 7.0 | 0.00 | 0.00 | 0.00 | 70 | 1004.5 |
| 20260506031035 | 48 | 184 | 2.0 | 14.0 | 0.00 | 0.00 | 0.00 | 70 | 1004.5 |
| 20260506030535 | 49 | 288 | 3.0 | 14.0 | 0.00 | 0.00 | 0.00 | 70 | 1004.4 |
| 20260506030038 | 49 | 211 | 4.0 | 14.0 | 0.00 | 0.00 | 0.00 | 69 | 1004.3 |
| 20260506025534 | 49 | 263 | 3.0 | 10.0 | 0.00 | 0.00 | 0.00 | 69 | 1004.2 |